Time,TemperatureF,DewpointF,PressureIn,WindDirection,WindDirectionDegrees,WindSpeedMPH,WindSpeedGustMPH,Humidity,HourlyPrecipIn,Conditions,Clouds,dailyrainin,SolarRadiationWatts/m^2,SoftwareType,DateUTC
2013-07-25 00:02:00,59.0,57.0,-100.00,NW,310,6.0,7.0,93,0.00,,,0.00,0.000000,,2013-07-25 05:02:00,
2013-07-25 00:32:00,58.0,57.0,-100.00,NW,308,7.0,9.0,95,0.00,,,0.00,0.000000,,2013-07-25 05:32:00,
2013-07-25 00:43:00,58.0,57.0,-100.00,NW,308,7.0,9.0,95,0.00,,,0.00,0.000000,,2013-07-25 05:43:00,
2013-07-25 00:52:00,58.0,57.0,-100.00,NW,308,7.0,9.0,95,0.00,,,0.00,0.000000,,2013-07-25 05:52:00,
2013-07-25 01:02:00,58.0,57.0,-100.00,NW,308,7.0,9.0,95,0.00,,,0.00,0.000000,,2013-07-25 06:02:00,
2013-07-25 01:32:00,57.0,56.0,-100.00,NNW,330,4.0,8.0,97,0.00,,,0.00,0.000000,,2013-07-25 06:32:00,
2013-07-25 01:42:00,57.0,56.0,-100.00,NNW,330,4.0,8.0,97,0.00,,,0.00,0.000000,,2013-07-25 06:42:00,
2013-07-25 01:52:00,57.0,56.0,-100.00,NNW,330,4.0,8.0,97,0.00,,,0.00,0.000000,,2013-07-25 06:52:00,
2013-07-25 02:02:00,57.0,56.0,-100.00,NNW,330,4.0,8.0,97,0.00,,,0.00,0.000000,,2013-07-25 07:02:00,
2013-07-25 02:33:00,56.0,55.0,-100.00,North,359,3.0,5.0,95,0.00,,,0.00,0.000000,,2013-07-25 07:33:00,
2013-07-25 02:43:00,56.0,55.0,-100.00,North,359,3.0,5.0,95,0.00,,,0.00,0.000000,,2013-07-25 07:43:00,
2013-07-25 02:53:00,56.0,55.0,-100.00,North,359,3.0,5.0,95,0.00,,,0.00,0.000000,,2013-07-25 07:53:00,
2013-07-25 03:02:00,56.0,55.0,-100.00,North,359,3.0,5.0,95,0.00,,,0.00,0.000000,,2013-07-25 08:02:00,
2013-07-25 03:32:00,53.0,52.0,-100.00,WSW,256,3.0,4.0,97,0.00,,,0.00,0.000000,,2013-07-25 08:32:00,
2013-07-25 03:44:00,53.0,52.0,-100.00,WSW,256,3.0,4.0,97,0.00,,,0.00,0.000000,,2013-07-25 08:44:00,
2013-07-25 03:52:00,53.0,52.0,-100.00,WSW,256,3.0,4.0,97,0.00,,,0.00,0.000000,,2013-07-25 08:52:00,
2013-07-25 04:02:00,53.0,52.0,-100.00,WSW,256,3.0,4.0,97,0.00,,,0.00,0.000000,,2013-07-25 09:02:00,
2013-07-25 04:33:00,53.0,52.0,-100.00,WNW,282,1.0,3.0,97,0.00,,,0.00,0.000000,,2013-07-25 09:33:00,
2013-07-25 04:43:00,53.0,52.0,-100.00,WNW,282,1.0,3.0,97,0.00,,,0.00,0.000000,,2013-07-25 09:43:00,
2013-07-25 04:53:00,53.0,52.0,-100.00,WNW,282,1.0,3.0,97,0.00,,,0.00,0.000000,,2013-07-25 09:53:00,
2013-07-25 05:02:00,53.0,52.0,-100.00,WNW,282,1.0,3.0,97,0.00,,,0.00,0.000000,,2013-07-25 10:02:00,
2013-07-25 05:32:00,53.0,52.0,-100.00,SSW,197,0.0,3.0,98,0.00,,,0.00,0.000000,,2013-07-25 10:32:00,
2013-07-25 05:43:00,53.0,52.0,-100.00,SSW,197,0.0,3.0,98,0.00,,,0.00,0.000000,,2013-07-25 10:43:00,
2013-07-25 05:53:00,53.0,52.0,-100.00,SSW,197,0.0,3.0,98,0.00,,,0.00,0.000000,,2013-07-25 10:53:00,
2013-07-25 06:02:00,53.0,52.0,-100.00,SSW,197,0.0,3.0,98,0.00,,,0.00,0.000000,,2013-07-25 11:02:00,
2013-07-25 06:32:00,54.0,54.0,-100.00,WSW,242,0.0,3.0,99,0.00,,,0.00,2.000000,,2013-07-25 11:32:00,
2013-07-25 06:43:00,54.0,54.0,-100.00,WSW,242,0.0,3.0,99,0.00,,,0.00,2.000000,,2013-07-25 11:43:00,
2013-07-25 06:52:00,54.0,54.0,-100.00,WSW,242,0.0,3.0,99,0.00,,,0.00,2.000000,,2013-07-25 11:52:00,
2013-07-25 07:02:00,54.0,54.0,-100.00,WSW,242,0.0,3.0,99,0.00,,,0.00,2.000000,,2013-07-25 12:02:00,
2013-07-25 07:32:00,56.0,56.0,-100.00,SW,230,3.0,4.0,99,0.00,,,0.00,43.000000,,2013-07-25 12:32:00,
2013-07-25 07:45:00,56.0,56.0,-100.00,SW,230,3.0,4.0,99,0.00,,,0.00,43.000000,,2013-07-25 12:45:00,
2013-07-25 07:53:00,56.0,56.0,-100.00,SW,230,3.0,4.0,99,0.00,,,0.00,43.000000,,2013-07-25 12:53:00,
2013-07-25 08:02:00,56.0,56.0,-100.00,SW,230,3.0,4.0,99,0.00,,,0.00,43.000000,,2013-07-25 13:02:00,
2013-07-25 08:33:00,57.0,57.0,-100.00,SW,222,5.0,6.0,99,0.00,,,0.00,83.000000,,2013-07-25 13:33:00,
2013-07-25 08:43:00,57.0,57.0,-100.00,SW,222,5.0,6.0,99,0.00,,,0.00,83.000000,,2013-07-25 13:43:00,
2013-07-25 08:53:00,57.0,57.0,-100.00,SW,222,5.0,6.0,99,0.00,,,0.00,83.000000,,2013-07-25 13:53:00,
2013-07-25 09:02:00,57.0,57.0,-100.00,SW,222,5.0,6.0,99,0.00,,,0.00,83.000000,,2013-07-25 14:02:00,
2013-07-25 09:33:00,60.0,60.0,-100.00,SSW,194,6.0,9.0,99,0.00,,,0.00,186.000000,,2013-07-25 14:33:00,
2013-07-25 09:43:00,60.0,60.0,-100.00,SSW,194,6.0,9.0,99,0.00,,,0.00,186.000000,,2013-07-25 14:43:00,
2013-07-25 09:53:00,60.0,60.0,-100.00,SSW,194,6.0,9.0,99,0.00,,,0.00,186.000000,,2013-07-25 14:53:00,
2013-07-25 10:02:00,60.0,60.0,-100.00,SSW,194,6.0,9.0,99,0.00,,,0.00,186.000000,,2013-07-25 15:02:00,
2013-07-25 10:32:00,60.0,59.0,-100.00,WSW,253,7.0,23.0,97,0.02,,,0.02,86.000000,,2013-07-25 15:32:00,
2013-07-25 10:44:00,60.0,59.0,-100.00,WSW,253,7.0,23.0,97,0.02,,,0.02,86.000000,,2013-07-25 15:44:00,
2013-07-25 10:53:00,60.0,59.0,-100.00,WSW,253,7.0,23.0,97,0.02,,,0.02,86.000000,,2013-07-25 15:53:00,
2013-07-25 11:02:00,60.0,59.0,-100.00,WSW,253,7.0,23.0,97,0.02,,,0.02,86.000000,,2013-07-25 16:02:00,
2013-07-25 11:33:00,57.0,56.0,-100.00,SW,229,2.0,25.0,96,0.43,,,0.45,75.000000,,2013-07-25 16:33:00,
2013-07-25 11:45:00,57.0,56.0,-100.00,SW,229,2.0,25.0,96,0.43,,,0.45,75.000000,,2013-07-25 16:45:00,
2013-07-25 11:53:00,57.0,56.0,-100.00,SW,229,2.0,25.0,96,0.43,,,0.45,75.000000,,2013-07-25 16:53:00,
2013-07-25 12:03:00,57.0,56.0,-100.00,SW,229,2.0,25.0,96,0.43,,,0.45,75.000000,,2013-07-25 17:03:00,
2013-07-25 12:32:00,65.0,60.0,-100.00,WSW,251,7.0,11.0,84,0.00,,,0.45,634.000000,,2013-07-25 17:32:00,
2013-07-25 12:43:00,65.0,60.0,-100.00,WSW,251,7.0,11.0,84,0.00,,,0.45,634.000000,,2013-07-25 17:43:00,
2013-07-25 12:53:00,65.0,60.0,-100.00,WSW,251,7.0,11.0,84,0.00,,,0.45,634.000000,,2013-07-25 17:53:00,
2013-07-25 13:02:00,65.0,60.0,-100.00,WSW,251,7.0,11.0,84,0.00,,,0.45,634.000000,,2013-07-25 18:02:00,
2013-07-25 13:33:00,71.0,60.0,-100.00,WNW,299,10.0,15.0,68,0.01,,,0.46,792.000000,,2013-07-25 18:33:00,
2013-07-25 13:43:00,71.0,60.0,-100.00,WNW,299,10.0,15.0,68,0.01,,,0.46,792.000000,,2013-07-25 18:43:00,
2013-07-25 13:52:00,71.0,60.0,-100.00,WNW,299,10.0,15.0,68,0.01,,,0.46,792.000000,,2013-07-25 18:52:00,
2013-07-25 14:02:00,71.0,60.0,-100.00,WNW,299,10.0,15.0,68,0.01,,,0.46,792.000000,,2013-07-25 19:02:00,
2013-07-25 14:33:00,72.0,58.0,-100.00,WNW,300,10.0,16.0,62,0.00,,,0.46,942.000000,,2013-07-25 19:33:00,
2013-07-25 14:43:00,72.0,58.0,-100.00,WNW,300,10.0,16.0,62,0.00,,,0.46,942.000000,,2013-07-25 19:43:00,
2013-07-25 14:53:00,72.0,58.0,-100.00,WNW,300,10.0,16.0,62,0.00,,,0.46,942.000000,,2013-07-25 19:53:00,
2013-07-25 15:02:00,72.0,58.0,-100.00,WNW,300,10.0,16.0,62,0.00,,,0.46,942.000000,,2013-07-25 20:02:00,
2013-07-25 15:32:00,74.0,57.0,-100.00,WNW,297,14.0,21.0,56,0.00,,,0.46,995.000000,,2013-07-25 20:32:00,
2013-07-25 15:43:00,74.0,57.0,-100.00,WNW,297,14.0,21.0,56,0.00,,,0.46,995.000000,,2013-07-25 20:43:00,
2013-07-25 15:53:00,74.0,57.0,-100.00,WNW,297,14.0,21.0,56,0.00,,,0.46,995.000000,,2013-07-25 20:53:00,
2013-07-25 16:02:00,74.0,57.0,-100.00,WNW,297,14.0,21.0,56,0.00,,,0.46,995.000000,,2013-07-25 21:02:00,
2013-07-25 16:33:00,72.0,57.0,-100.00,WNW,301,11.0,22.0,59,0.00,,,0.46,671.000000,,2013-07-25 21:33:00,
2013-07-25 16:44:00,72.0,57.0,-100.00,WNW,301,11.0,22.0,59,0.00,,,0.46,671.000000,,2013-07-25 21:44:00,
2013-07-25 16:52:00,72.0,57.0,-100.00,WNW,301,11.0,22.0,59,0.00,,,0.46,671.000000,,2013-07-25 21:52:00,
2013-07-25 17:02:00,72.0,57.0,-100.00,WNW,301,11.0,22.0,59,0.00,,,0.46,671.000000,,2013-07-25 22:02:00,
2013-07-25 17:33:00,66.0,55.0,-100.00,NW,309,16.0,24.0,68,0.00,,,0.46,396.000000,,2013-07-25 22:33:00,
2013-07-25 17:43:00,66.0,55.0,-100.00,NW,309,16.0,24.0,68,0.00,,,0.46,396.000000,,2013-07-25 22:43:00,
2013-07-25 17:52:00,66.0,55.0,-100.00,NW,309,16.0,24.0,68,0.00,,,0.46,396.000000,,2013-07-25 22:52:00,
2013-07-25 18:02:00,66.0,55.0,-100.00,NW,309,16.0,24.0,68,0.00,,,0.46,396.000000,,2013-07-25 23:02:00,
2013-07-25 18:32:00,68.0,56.0,-100.00,NW,307,11.0,20.0,65,0.00,,,0.46,467.000000,,2013-07-25 23:32:00,
2013-07-25 18:43:00,68.0,56.0,-100.00,NW,307,11.0,20.0,65,0.00,,,0.46,467.000000,,2013-07-25 23:43:00,
2013-07-25 18:52:00,68.0,56.0,-100.00,NW,307,11.0,20.0,65,0.00,,,0.46,467.000000,,2013-07-25 23:52:00,
2013-07-25 19:02:00,68.0,56.0,-100.00,NW,307,11.0,20.0,65,0.00,,,0.46,467.000000,,2013-07-26 00:02:00,
2013-07-25 19:33:00,63.0,56.0,-100.00,NNE,15,4.0,18.0,79,0.00,,,0.46,175.000000,,2013-07-26 00:33:00,
2013-07-25 19:43:00,63.0,56.0,-100.00,NNE,15,4.0,18.0,79,0.00,,,0.46,175.000000,,2013-07-26 00:43:00,
2013-07-25 19:52:00,63.0,56.0,-100.00,NNE,15,4.0,18.0,79,0.00,,,0.46,175.000000,,2013-07-26 00:52:00,
2013-07-25 20:02:00,63.0,56.0,-100.00,NNE,15,4.0,18.0,79,0.00,,,0.46,175.000000,,2013-07-26 01:02:00,
2013-07-25 20:33:00,64.0,57.0,-100.00,North,5,10.0,16.0,79,0.00,,,0.46,147.000000,,2013-07-26 01:33:00,
2013-07-25 20:43:00,64.0,57.0,-100.00,North,5,10.0,16.0,79,0.00,,,0.46,147.000000,,2013-07-26 01:43:00,
2013-07-25 20:52:00,64.0,57.0,-100.00,North,5,10.0,16.0,79,0.00,,,0.46,147.000000,,2013-07-26 01:52:00,
2013-07-25 21:02:00,64.0,57.0,-100.00,North,5,10.0,16.0,79,0.00,,,0.46,147.000000,,2013-07-26 02:02:00,
2013-07-25 22:33:00,59.0,56.0,-100.00,NNE,14,12.0,20.0,91,-99.99,,,0.46,1.000000,,2013-07-26 03:33:00,
2013-07-25 22:44:00,59.0,56.0,-100.00,NNE,14,12.0,20.0,91,-99.99,,,0.46,1.000000,,2013-07-26 03:44:00,
2013-07-25 22:53:00,59.0,56.0,-100.00,NNE,14,12.0,20.0,91,-99.99,,,0.46,1.000000,,2013-07-26 03:53:00,
2013-07-25 23:02:00,59.0,56.0,-100.00,NNE,14,12.0,20.0,91,-99.99,,,0.46,1.000000,,2013-07-26 04:02:00,
2013-07-25 23:32:00,58.0,56.0,-100.00,NE,38,16.0,26.0,93,0.03,,,0.49,0.000000,,2013-07-26 04:32:00,
2013-07-25 23:43:00,58.0,56.0,-100.00,NE,38,16.0,26.0,93,0.03,,,0.49,0.000000,,2013-07-26 04:43:00,
2013-07-25 23:53:00,58.0,56.0,-100.00,NE,38,16.0,26.0,93,0.03,,,0.49,0.000000,,2013-07-26 04:53:00,